Location: Cheyres
(46.8153°N, 6.7877°E)
Time: 13:13:39
(UTC+00:00)

Cosmos 2150 Rocket - Pass Details

Date: 11 May 2021
Orbit: 750 x 807 km, 74.0° (Epoch: 19 June)

Event Time Altitude Azimuth Distance (km) Brightness Sun altitude
Exits shadow 23:04:28 50° 108° (ESE) 1,001 4.4 -24.8°
Maximum altitude 23:04:32 50° 105° (ESE) 1,000 4.4 -24.8°
Drops below altitude 10° 23:09:38 10° 32° (NNE) 2,336 7.2 -24.9°
Sets 23:12:04 0° 27° (NNE) 3,258 8.2 -24.9°
